OHDAC EFNU-EFLA

Flight info

Callsign OHDAC
Flight time N/A
Altitude 9000
Route DCT
Aircraft DA42/L-SBDGRY/S

Departure

Time 2026-04-24 20:46
Airport Nummela Airfield (EFNU)

Arrival

Time N/A
Airport Lahti Vesivehmaa Airfield (EFLA)
Time Latitude Longitude Altitude Speed Heading
2026-04-24 20:40 60.33548 24.30147 373 ft 0 kts 34°
2026-04-24 20:43 60.33548 24.30148 373 ft 0 kts 34°
2026-04-24 20:43 60.33552 24.30099 373 ft 0 kts 306°
2026-04-24 20:43 60.33553 24.30099 373 ft 0 kts 306°
2026-04-24 20:44 60.33560 24.30078 373 ft 7 kts 307°
2026-04-24 20:44 60.33551 24.29862 374 ft 15 kts 237°
2026-04-24 20:44 60.33503 24.29743 374 ft 14 kts 205°
2026-04-24 20:44 60.33371 24.29538 375 ft 32 kts 217°
2026-04-24 20:45 60.33210 24.29279 374 ft 29 kts 219°
2026-04-24 20:45 60.33157 24.29068 373 ft 17 kts 53°
2026-04-24 20:45 60.33446 24.29578 395 ft 80 kts 39°
2026-04-24 20:45 60.33850 24.30372 668 ft 81 kts 41°
2026-04-24 20:46 60.34255 24.31147 1020 ft 78 kts 38°
2026-04-24 20:46 60.34645 24.31862 1366 ft 75 kts 35°
2026-04-24 20:46 60.35039 24.32559 1647 ft 82 kts 34°
2026-04-24 20:46 60.35486 24.33325 1965 ft 87 kts 33°
2026-04-24 20:47 60.35952 24.34116 2298 ft 89 kts 33°
2026-04-24 20:47 60.36431 24.34924 2646 ft 90 kts 33°
2026-04-24 20:47 60.36916 24.35739 2992 ft 92 kts 33°
2026-04-24 20:47 60.37403 24.36558 3340 ft 92 kts 32°
2026-04-24 20:48 60.37895 24.37384 3696 ft 92 kts 32°
2026-04-24 20:48 60.38382 24.38202 4049 ft 92 kts 31°
2026-04-24 20:48 60.38869 24.39018 4401 ft 91 kts 31°
2026-04-24 20:48 60.39362 24.39841 4755 ft 91 kts 30°
2026-04-24 20:49 60.39845 24.40650 5100 ft 92 kts 29°
2026-04-24 20:49 60.40334 24.41469 5450 ft 92 kts 28°
2026-04-24 20:49 60.40825 24.42290 5797 ft 92 kts 27°
2026-04-24 20:49 60.41322 24.43119 6146 ft 92 kts 26°
2026-04-24 20:50 60.41806 24.43934 6496 ft 92 kts 26°
2026-04-24 20:50 60.42302 24.44764 6846 ft 92 kts 26°
2026-04-24 20:50 60.42788 24.45578 7194 ft 91 kts 25°
2026-04-24 20:50 60.43275 24.46391 7538 ft 92 kts 25°
2026-04-24 20:51 60.43766 24.47214 7878 ft 92 kts 24°
2026-04-24 20:51 60.44257 24.48042 8235 ft 91 kts 24°
2026-04-24 20:51 60.44743 24.48853 8566 ft 92 kts 23°
2026-04-24 20:51 60.45297 24.49751 8698 ft 113 kts 25°
2026-04-24 20:52 60.45977 24.50866 8714 ft 136 kts 28°
2026-04-24 20:52 60.46738 24.52155 8710 ft 150 kts 29°
2026-04-24 20:52 60.47561 24.53557 8704 ft 158 kts 30°
2026-04-24 20:52 60.48415 24.55012 8702 ft 162 kts 30°
2026-04-24 20:53 60.49291 24.56499 8702 ft 164 kts 30°
2026-04-24 20:53 60.50170 24.57984 8699 ft 166 kts 30°
2026-04-24 20:53 60.51064 24.59497 8695 ft 167 kts 30°
2026-04-24 20:53 60.51953 24.61000 8691 ft 167 kts 30°
2026-04-24 20:54 60.52852 24.62520 8692 ft 167 kts 30°
2026-04-24 20:54 60.53754 24.64047 8693 ft 168 kts 30°
2026-04-24 20:54 60.54647 24.65557 8688 ft 168 kts 31°
2026-04-24 20:54 60.55551 24.67088 8685 ft 167 kts 31°
2026-04-24 20:55 60.56437 24.68588 8682 ft 167 kts 31°
2026-04-24 20:55 60.57340 24.70118 8687 ft 167 kts 31°
2026-04-24 20:55 60.58234 24.71637 8684 ft 168 kts 31°
2026-04-24 20:55 60.59134 24.73166 8685 ft 168 kts 31°
2026-04-24 20:56 60.60035 24.74696 8686 ft 168 kts 31°
2026-04-24 20:56 60.60928 24.76219 8691 ft 168 kts 31°
2026-04-24 20:56 60.61817 24.77728 8696 ft 168 kts 31°
2026-04-24 20:56 60.62726 24.79275 8697 ft 168 kts 31°
2026-04-24 20:57 60.63617 24.80796 8697 ft 168 kts 30°
2026-04-24 20:57 60.64512 24.82325 8696 ft 168 kts 30°
2026-04-24 20:57 60.65423 24.83880 8697 ft 168 kts 30°
2026-04-24 20:57 60.66321 24.85410 8693 ft 168 kts 30°
2026-04-24 20:58 60.67213 24.86937 8688 ft 168 kts 30°
2026-04-24 20:58 60.68106 24.88465 8685 ft 168 kts 31°
2026-04-24 20:58 60.69014 24.90017 8681 ft 168 kts 31°
2026-04-24 20:58 60.69912 24.91559 8665 ft 169 kts 31°
2026-04-24 20:59 60.70847 24.93202 8298 ft 186 kts 33°
2026-04-24 20:59 60.71968 24.94333 8047 ft 172 kts 356°
2026-04-24 20:59 60.72949 24.93319 7918 ft 163 kts 307°
2026-04-24 20:59 60.73138 24.91057 7869 ft 169 kts 264°
2026-04-24 21:00 60.72584 24.88882 7801 ft 177 kts 240°
2026-04-24 21:00 60.71645 24.87230 7855 ft 179 kts 221°
2026-04-24 21:00 60.70522 24.85863 7446 ft 198 kts 214°
2026-04-24 21:00 60.69196 24.85526 7521 ft 205 kts 169°
2026-04-24 21:01 60.67989 24.87277 7223 ft 217 kts 128°
2026-04-24 21:01 60.67369 24.90056 6390 ft 240 kts 98°
2026-04-24 21:01 60.67512 24.93443 5443 ft 238 kts 68°
2026-04-24 21:01 60.68313 24.96173 5182 ft 212 kts 40°
2026-04-24 21:02 60.69544 24.97682 4510 ft 211 kts 12°
2026-04-24 21:02 60.70998 24.97737 3725 ft 212 kts 348°
2026-04-24 21:02 60.72339 24.96770 3390 ft 197 kts 325°
2026-04-24 21:02 60.73186 24.94662 2857 ft 201 kts 295°
2026-04-24 21:03 60.73437 24.91913 2588 ft 192 kts 269°
2026-04-24 21:03 60.73066 24.89366 2424 ft 186 kts 240°
2026-04-24 21:03 60.72101 24.87524 1912 ft 202 kts 213°
2026-04-24 21:03 60.70786 24.86676 1741 ft 195 kts 192°
2026-04-24 21:04 60.69425 24.86262 1417 ft 195 kts 188°
2026-04-24 21:04 60.68111 24.86305 1503 ft 183 kts 176°
2026-04-24 21:04 60.66906 24.87259 1186 ft 194 kts 130°
2026-04-24 21:04 60.66826 24.89380 1369 ft 125 kts 81°
2026-04-24 21:05 60.66956 24.91010 1301 ft 112 kts 34°
2026-04-24 21:05 60.67209 24.90285 1208 ft 111 kts 218°
2026-04-24 21:05 60.66455 24.90661 955 ft 106 kts 214°
2026-04-24 21:05 60.66380 24.89195 743 ft 112 kts 256°
2026-04-24 21:06 60.66012 24.88191 1036 ft 96 kts 208°
2026-04-24 21:06 60.65255 24.87829 822 ft 109 kts 189°
2026-04-24 21:06 60.64538 24.87477 834 ft 106 kts 216°
2026-04-24 21:06 60.64423 24.86528 962 ft 91 kts 22°
2026-04-24 21:07 60.65078 24.87349 537 ft 123 kts 38°
2026-04-24 21:07 60.65597 24.88451 445 ft 114 kts 44°
2026-04-24 21:07 60.66072 24.89397 459 ft 97 kts 41°
2026-04-24 21:07 60.66386 24.90015 442 ft 27 kts 56°
2026-04-24 21:08 60.66405 24.90076 438 ft 0 kts 59°